GFSMA_sfc_dewp_276.txt.gz
Dewpoint
71 71 69 68 69 70 72 73 73 73 73 73 73 72 72 73 71 70 75 74 76 75 75 74 71 70 70 71 73 74 76 73 74 73 72 74 74 73 73 73 71 70 73
72 70 70 71 72 74 75 74 73 73 72 72 72 72 72 73 72 73 74 74 76 75 75 72 70 71 71 72 72 73 74 73 74 74 73 72 73 72 73 72 73 73 72
71 70 73 73 75 75 73 74 72 71 71 67 67 70 71 72 73 73 74 74 76 76 74 74 73 73 72 72 71 71 71 70 70 70 71 73 71 71 71 70 71 71 71
72 68 74 73 75 72 73 73 72 71 71 68 69 68 67 71 73 73 73 73 73 73 74 74 74 73 71 71 71 71 71 71 70 70 70 70 69 71 70 68 70 70 71
73 71 73 73 74 73 73 72 72 72 69 68 66 67 67 68 70 71 71 71 72 72 73 74 72 72 70 69 68 68 69 68 67 68 68 69 69 69 71 70 68 70 70
73 73 73 73 74 73 73 72 71 71 68 67 62 65 68 68 70 71 70 70 70 69 71 70 71 69 69 68 67 66 66 65 65 65 64 65 67 68 69 71 70 70 69
73 71 73 69 73 74 74 73 72 70 70 68 66 64 66 69 69 69 69 69 68 67 67 69 70 68 68 69 69 66 65 65 65 64 64 64 64 65 68 69 71 70 70
72 72 72 69 71 75 74 73 73 69 68 68 65 62 61 62 63 68 69 68 67 68 67 68 68 67 67 69 70 68 64 65 65 64 63 63 63 64 65 67 69 69 68
72 73 71 68 72 75 75 74 72 71 67 69 65 65 61 60 62 61 65 67 68 68 68 68 68 67 66 67 68 69 66 66 65 64 63 62 62 63 63 65 67 69 70
72 73 72 72 71 74 74 74 74 73 70 68 68 66 66 65 63 62 64 64 66 66 66 67 67 66 66 66 66 67 67 66 65 64 63 62 62 62 62 63 65 68 69
72 72 73 74 73 75 74 74 73 72 72 71 69 68 66 67 65 63 61 62 63 65 65 65 65 65 65 65 66 65 65 65 63 63 62 62 62 62 62 62 63 67 70
71 71 71 73 73 73 75 74 74 73 72 70 70 69 65 64 65 64 62 62 62 62 63 64 64 64 64 64 65 64 64 64 63 62 62 62 62 62 63 62 62 65 69
71 71 71 71 73 74 75 74 74 73 73 71 69 68 66 66 66 66 64 63 61 61 62 63 63 64 63 63 64 64 64 63 62 62 61 62 62 62 63 63 63 64 68
71 71 71 71 73 73 74 74 74 74 73 73 69 68 67 67 67 66 65 63 59 60 61 61 62 63 63 63 63 64 64 62 60 61 61 61 61 62 64 64 64 64 67
68 70 70 72 72 73 73 73 71 72 73 73 70 70 68 68 68 68 67 65 63 57 59 60 61 63 62 64 63 63 63 62 61 61 61 59 60 61 63 65 65 65 66
71 72 71 71 71 71 72 72 71 72 72 73 71 71 70 69 68 69 68 68 65 59 58 60 60 62 62 63 63 62 62 62 61 61 60 58 59 60 63 65 65 65 66
71 71 71 70 70 70 71 71 71 72 72 71 71 72 71 70 69 69 68 68 64 60 58 59 61 61 61 62 62 61 62 62 61 61 59 59 60 60 63 64 64 65 66
72 71 71 71 71 71 73 74 73 73 72 72 72 72 71 71 70 70 68 66 63 60 58 57 60 60 60 62 61 60 60 59 60 60 59 60 60 60 61 62 62 61 61
72 71 72 73 74 74 73 73 73 73 73 73 72 72 71 70 69 68 68 65 61 58 58 58 59 60 60 62 60 60 60 60 58 60 61 60 60 60 61 61 59 59 58
73 73 72 73 73 73 73 73 73 73 73 72 73 72 72 71 69 68 67 64 60 58 58 57 58 59 59 60 61 59 59 59 58 59 61 60 61 60 60 60 60 59 58
71 71 71 72 72 72 71 73 72 72 72 71 71 72 73 71 69 68 67 64 58 57 57 56 57 57 58 58 58 59 59 59 58 58 59 59 61 61 59 59 58 59 58
70 71 71 71 71 71 67 65 67 70 70 70 70 70 70 70 68 66 64 63 61 57 57 56 56 57 58 59 58 58 57 57 56 59 59 58 59 59 59 60 60 59 58
71 70 70 71 70 63 60 61 64 68 70 71 71 69 68 67 67 65 62 62 61 59 58 58 57 57 57 59 59 58 57 57 58 58 58 57 58 58 59 58 59 59 58
69 69 69 68 64 61 58 59 62 70 70 69 68 67 66 64 64 64 62 61 61 59 59 56 59 58 59 60 60 60 58 59 58 58 59 56 58 57 59 58 58 59 58
68 68 66 64 63 59 56 57 64 68 69 69 67 66 63 61 58 58 61 59 59 57 58 57 57 57 57 57 59 59 59 57 57 57 58 58 58 58 59 58 60 58 57
67 66 65 63 61 61 55 54 61 64 64 66 68 65 60 59 56 55 59 59 57 56 58 59 58 58 58 58 58 61 59 58 57 57 58 57 58 58 57 59 60 59 59

GFSMA_sfc_dewp_279.txt.gz
Dewpoint
74 73 72 68 70 71 73 74 73 73 73 73 73 73 72 72 72 71 69 74 76 76 76 75 74 74 71 71 71 71 72 73 75 74 72 72 73 73 72 72 71 71 72
74 71 71 72 73 74 74 74 74 74 73 72 69 69 69 70 73 72 71 72 76 76 76 76 73 70 71 71 72 73 72 73 74 73 73 72 72 72 72 71 71 71 71
75 72 73 74 74 76 75 75 75 73 72 68 69 68 68 68 68 73 73 74 73 76 76 75 73 72 72 71 71 71 71 71 71 71 72 72 72 72 72 72 71 71 70
76 73 73 74 74 74 72 73 73 71 71 69 68 66 66 68 69 73 75 75 75 76 74 74 75 74 72 71 70 70 70 71 71 70 70 70 71 72 71 70 72 71 71
74 74 73 74 76 73 71 72 72 72 70 69 65 66 68 68 70 71 73 73 74 74 74 74 74 73 71 70 69 68 70 70 69 70 70 70 69 71 72 70 70 70 71
74 75 73 75 75 73 74 72 73 71 70 69 64 64 70 69 70 72 72 71 71 71 72 72 71 69 71 69 69 67 67 67 66 66 66 67 68 69 72 72 70 71 71
74 76 72 73 73 74 75 76 73 71 68 70 67 65 66 69 70 70 70 70 69 69 69 71 72 68 67 70 70 67 66 65 65 65 64 64 65 67 68 71 70 70 71
74 73 74 74 72 73 78 76 75 71 70 70 67 65 58 60 64 68 70 70 68 70 68 68 69 70 69 71 70 68 66 65 65 64 64 64 64 65 67 68 71 70 71
72 74 75 74 73 75 72 77 75 74 69 71 69 66 62 57 60 63 66 67 68 70 69 68 68 69 70 68 69 69 66 67 66 65 63 63 63 63 64 67 68 70 70
74 73 75 75 75 73 75 75 74 75 75 70 72 71 69 67 66 63 66 66 67 67 68 69 69 68 68 68 67 68 67 67 65 65 63 63 62 62 62 64 68 69 69
74 72 74 75 76 74 76 77 78 77 77 76 73 72 67 68 68 65 62 64 66 67 68 68 67 67 67 67 67 66 67 66 66 65 64 63 63 63 62 62 66 69 70
71 74 73 74 75 75 75 75 78 77 78 75 74 69 67 65 65 65 64 64 64 64 65 67 66 65 65 65 64 64 66 66 65 64 64 64 63 63 62 61 63 69 68
69 72 74 74 72 74 76 77 77 78 78 77 76 69 67 67 66 66 65 64 63 66 64 65 65 64 63 66 65 64 65 65 64 64 63 63 63 63 63 63 62 66 69
70 73 72 71 72 75 75 77 75 76 78 77 75 69 70 68 68 66 65 64 62 62 63 63 63 63 63 64 64 64 64 64 62 62 63 62 62 62 63 64 64 64 68
70 72 73 73 73 73 74 76 73 74 75 74 75 72 73 69 71 68 68 67 64 60 61 61 62 64 63 64 65 64 63 61 61 62 61 60 61 62 63 64 65 66 66
73 73 73 73 74 73 73 74 72 73 74 74 75 74 74 70 70 70 69 69 67 62 60 61 61 63 63 62 63 63 62 62 61 61 60 59 60 61 63 65 65 65 66
74 74 74 74 73 73 73 74 75 76 76 75 76 74 74 74 71 71 69 69 64 64 61 60 61 64 63 62 64 63 63 63 61 60 59 60 60 62 63 64 65 66 67
75 74 74 74 73 73 75 77 76 75 74 74 74 75 74 73 72 71 70 68 64 64 62 61 61 61 61 64 62 62 59 59 62 60 60 60 60 61 62 62 62 61 62
75 74 74 74 75 76 75 75 75 74 74 73 74 74 74 73 72 72 71 66 63 62 62 59 59 60 62 61 61 61 62 61 59 61 60 60 60 61 61 60 60 60 58
75 75 75 75 74 73 73 74 74 74 74 74 75 74 74 73 72 71 70 66 63 62 62 59 59 59 60 61 59 58 58 57 58 59 61 61 60 60 60 60 60 59 59
75 74 73 73 73 73 69 71 73 73 73 72 72 73 73 72 70 71 70 66 64 62 59 58 57 58 59 58 59 58 56 60 60 61 63 61 60 60 59 59 59 59 59
72 72 73 72 72 68 61 62 68 71 73 73 72 72 71 70 69 67 67 65 63 63 61 56 55 56 60 58 59 57 59 59 57 61 59 59 61 59 59 60 60 60 59
73 72 71 69 65 64 59 61 64 72 71 70 69 69 69 68 69 67 63 62 62 60 62 62 60 59 61 60 60 59 59 60 59 60 59 59 59 58 60 60 59 59 59
72 70 69 66 64 63 58 59 64 71 71 70 69 69 68 67 66 66 63 62 60 59 59 57 61 61 62 62 61 60 60 60 58 60 61 58 60 58 59 59 59 59 59
70 69 67 67 64 62 56 57 65 69 69 70 70 67 65 62 59 60 62 61 61 59 58 57 59 59 59 59 59 58 58 58 57 57 59 59 59 60 59 59 59 58 58
69 67 67 66 61 63 54 54 60 65 66 68 70 68 59 59 55 57 62 61 61 58 59 59 59 58 59 60 59 61 59 57 57 57 59 58 59 59 58 60 59 59 58

GFSMA_sfc_dewp_285.txt.gz
Dewpoint
71 71 72 70 70 69 71 71 73 72 72 68 69 70 72 70 66 70 74 73 76 76 77 76 75 74 74 74 74 75 74 74 75 74 74 73 74 74 73 72 70 70 68
72 70 71 70 73 72 72 73 74 73 71 65 70 65 65 63 61 60 60 75 75 73 75 73 72 71 72 73 73 72 72 73 75 75 75 73 73 73 73 72 70 69 69
75 76 74 74 73 71 75 73 72 70 70 68 65 64 62 61 60 65 66 70 74 74 74 73 73 72 72 71 71 72 73 73 74 75 75 74 73 73 73 72 71 71 70
75 75 74 74 70 75 70 66 66 67 67 65 65 64 63 63 65 68 71 74 77 74 70 72 72 72 72 69 69 72 71 71 73 74 74 73 73 72 72 72 72 71 70
70 73 70 76 72 71 70 69 66 68 75 66 63 62 64 64 65 66 71 74 73 72 70 71 72 72 70 68 70 71 70 71 71 72 73 72 72 73 72 72 72 72 70
69 71 74 70 72 66 72 70 73 72 74 69 64 65 67 65 68 70 71 70 72 71 70 71 73 70 67 67 68 72 71 70 70 71 71 71 71 73 72 72 72 72 71
69 72 67 69 70 70 73 73 72 71 67 71 74 70 69 68 67 67 67 69 69 68 69 70 71 69 70 69 69 71 70 69 69 69 69 70 70 70 73 72 71 72 70
70 70 73 71 73 70 75 75 74 71 68 72 69 69 67 65 67 67 69 68 68 70 68 68 69 69 69 70 70 71 69 68 67 66 66 67 69 69 70 72 72 71 71
71 72 73 74 75 75 67 75 74 75 68 69 73 69 63 60 65 68 67 66 65 69 68 69 70 70 71 71 70 69 68 68 66 65 65 65 66 68 69 72 72 71 71
71 71 74 75 76 73 77 74 71 76 77 72 76 70 72 69 63 60 65 64 66 67 68 68 69 71 70 71 69 69 69 68 68 65 64 63 63 64 67 69 71 71 71
73 71 71 75 76 73 77 77 78 79 74 71 68 75 74 70 68 64 59 62 65 67 69 69 69 68 67 70 69 69 68 68 68 67 66 64 63 63 63 66 69 70 70
70 74 71 74 75 76 76 75 78 79 77 75 71 71 72 70 72 66 61 61 61 66 68 69 67 67 68 70 68 68 68 68 67 67 66 64 64 63 62 63 68 70 70
61 66 73 74 72 77 76 77 77 78 76 75 76 70 70 76 76 68 64 62 62 66 66 67 68 67 66 70 66 65 66 67 66 65 65 65 65 64 63 61 65 68 70
64 71 69 71 72 74 73 76 70 70 75 72 76 77 76 72 78 72 68 63 64 63 63 64 68 66 70 69 65 66 65 65 65 65 64 63 64 64 63 63 64 67 69
67 71 69 70 70 72 72 76 69 74 75 75 77 77 78 77 79 74 71 68 66 61 61 64 63 67 68 63 62 62 63 64 64 64 64 63 62 62 62 63 63 65 66
71 71 72 71 72 72 72 76 72 74 77 75 75 76 78 76 77 75 71 70 71 64 61 64 63 65 63 61 61 61 62 63 63 62 62 61 61 62 63 64 64 65 65
76 75 75 74 73 73 73 75 77 76 75 76 77 76 76 77 77 74 71 70 67 66 61 64 65 63 63 62 60 62 60 59 59 61 60 60 63 64 65 65 66 65 65
76 75 76 76 75 75 76 76 75 75 75 74 74 75 74 75 75 75 72 69 66 66 64 61 63 62 62 64 63 63 58 56 57 59 59 61 63 63 63 63 62 63 63
75 74 76 75 76 76 76 76 77 76 74 74 74 74 74 75 75 75 73 68 67 66 65 62 63 61 65 62 61 61 63 65 58 60 60 61 62 62 62 62 61 61 60
75 75 75 75 76 76 75 76 74 74 74 74 75 73 73 72 74 74 69 68 66 65 63 62 60 61 61 63 60 60 61 62 57 56 58 59 61 62 61 61 61 61 60
75 75 75 75 75 74 68 72 73 73 74 73 72 72 72 71 70 71 68 66 65 64 64 59 59 59 60 57 59 61 61 58 61 65 59 57 59 59 60 61 61 61 61
75 76 75 75 74 69 61 63 67 73 72 71 71 71 72 71 69 67 66 65 66 64 66 60 57 58 63 60 60 58 62 57 61 68 63 60 60 60 58 59 62 60 60
76 76 75 75 72 71 60 61 65 72 72 72 72 71 69 68 68 66 64 64 63 62 64 66 65 63 63 64 63 63 64 61 64 60 63 61 62 58 58 61 61 60 59
76 77 74 73 72 65 57 58 61 71 72 71 70 70 70 69 68 66 65 64 62 61 63 60 63 66 66 66 65 64 64 65 65 60 67 63 57 59 58 60 60 60 60
76 74 73 72 71 67 56 56 63 70 71 70 69 68 68 68 63 63 66 63 62 61 57 60 61 61 61 61 61 59 57 56 57 58 62 61 63 59 59 59 59 60 59
74 71 71 70 65 67 55 55 59 65 69 67 69 68 59 63 59 60 66 64 63 59 59 62 62 62 62 61 60 65 59 57 59 58 61 59 59 58 57 60 60 59 59

GFSMA_sfc_dewp_291.txt.gz
Dewpoint
72 73 74 73 74 73 75 74 74 74 73 73 71 68 71 71 69 71 70 71 71 71 74 73 71 72 73 73 73 73 73 74 75 75 75 75 73 73 73 73 73 72 72
73 74 72 73 71 70 73 73 72 73 72 74 72 71 69 68 71 71 71 71 72 74 71 71 71 72 73 72 72 71 71 73 73 74 74 74 74 73 74 74 72 71 72
74 71 71 71 69 70 73 74 73 72 71 69 69 68 68 70 71 73 73 72 73 73 71 71 73 73 73 72 72 71 71 70 69 73 73 73 73 73 73 73 73 72 71
75 71 72 70 71 73 72 71 71 70 69 68 68 68 66 71 73 72 73 74 73 73 71 73 72 71 73 72 72 71 70 68 71 73 73 72 72 73 73 73 73 72 71
74 73 69 68 73 74 73 72 68 72 71 69 69 67 67 69 70 73 73 72 70 72 71 72 71 71 72 72 71 71 69 69 70 69 71 73 73 73 73 73 73 72 72
74 74 74 73 73 74 72 71 72 72 72 72 71 70 70 70 70 71 71 66 68 69 70 71 70 70 70 71 71 71 70 68 68 68 69 73 72 72 72 73 73 72 71
68 70 73 73 73 72 73 73 73 72 71 72 70 69 69 69 69 68 65 64 66 68 68 68 69 69 69 70 70 70 70 70 70 69 69 71 72 71 72 72 73 71 71
71 71 70 74 74 74 74 71 69 72 71 72 69 67 64 65 67 64 64 65 65 65 66 68 68 67 68 68 69 69 69 70 70 69 67 69 70 71 71 71 72 71 71
70 70 70 73 74 75 73 71 71 71 69 71 71 68 64 63 65 66 64 65 64 63 65 66 67 67 68 68 69 69 68 70 69 69 66 65 68 70 71 72 71 71 71
70 70 71 73 74 75 73 74 75 73 71 69 71 72 69 68 65 64 64 63 64 63 63 66 66 67 68 68 69 69 69 70 70 69 68 65 65 68 69 71 72 72 71
73 72 73 75 76 76 76 75 74 74 73 72 72 71 69 69 68 66 65 63 63 63 64 65 66 66 66 66 67 68 69 69 68 68 67 65 64 65 68 69 71 72 71
72 73 72 73 74 75 75 73 73 73 73 73 73 71 69 68 67 66 66 63 60 62 65 66 66 65 66 66 68 68 69 68 69 68 66 66 64 63 64 67 70 70 71
68 72 73 73 73 74 74 73 73 72 73 72 71 70 71 69 68 67 64 64 60 62 64 65 65 65 66 66 66 67 68 68 68 67 67 66 66 64 63 65 67 70 70
71 70 69 70 70 70 71 73 73 72 72 72 71 71 71 70 69 68 65 63 61 62 63 63 66 64 64 64 66 67 66 67 67 66 66 66 65 66 66 66 66 67 70
71 70 71 70 71 70 72 73 72 72 73 73 73 72 72 71 71 70 67 65 62 60 60 62 61 65 62 62 64 63 63 66 66 65 65 65 65 64 64 65 66 66 68
72 72 71 71 72 73 73 72 72 74 73 74 74 72 72 72 71 70 69 68 64 63 60 62 64 64 61 61 64 62 63 64 65 64 64 65 64 63 64 64 64 66 67
73 72 72 73 73 74 74 74 74 74 74 73 73 72 72 72 71 70 69 69 65 64 60 62 64 61 59 61 60 61 62 60 62 64 64 64 63 64 65 65 64 65 68
73 73 74 75 75 75 74 75 73 73 72 73 73 73 71 73 71 70 69 66 65 63 62 60 61 60 59 59 59 59 59 59 59 61 64 64 64 64 63 64 63 64 64
73 74 75 75 75 75 75 75 73 72 72 73 72 71 69 69 70 70 67 65 65 64 63 61 60 60 60 59 59 59 58 57 58 61 63 64 63 63 62 62 61 62 61
74 74 75 76 76 76 75 72 71 71 73 71 71 70 69 69 70 68 66 65 64 62 61 61 59 59 58 58 59 58 57 57 56 57 61 61 62 62 62 62 62 62 62
75 76 75 75 75 71 71 70 71 71 70 71 71 69 68 70 70 68 66 65 64 60 61 60 58 58 58 57 57 58 56 57 55 55 55 57 58 58 59 62 62 62 62
75 75 75 75 70 69 64 66 68 70 71 70 69 68 68 68 68 67 66 65 63 60 60 59 58 58 58 58 58 58 57 56 54 59 55 55 58 57 58 59 62 61 61
75 76 75 75 67 64 62 63 66 68 70 68 67 69 67 66 65 64 64 64 62 62 62 62 59 59 58 59 59 57 56 57 57 58 58 55 58 57 59 60 61 60 60
75 75 76 71 66 62 60 59 62 67 69 68 69 69 68 66 64 63 62 62 59 59 59 60 60 60 60 61 60 59 58 59 59 59 59 55 58 57 58 58 60 60 59
75 75 74 69 65 61 58 58 60 69 68 66 65 64 69 66 63 63 63 61 59 58 60 60 62 62 62 62 61 60 58 57 56 57 60 58 57 57 57 57 58 60 59
75 75 72 69 64 62 56 56 58 70 68 66 61 62 64 64 61 62 62 61 58 58 60 61 61 61 61 61 62 60 59 57 57 56 60 58 57 57 55 58 57 57 56